TimeBST,TemperatureF,Dew PointF,Humidity,Sea Level PressureIn,VisibilityMPH,Wind Direction,Wind SpeedMPH,Gust SpeedMPH,PrecipitationIn,Events,Conditions,WindDirDegrees,DateUTC
12:20 AM,59.0,55.4,88,30.18,6.2,SSW,9.2,-,N/A,,Overcast,200,2013-09-03 23:20:00
12:50 AM,57.2,53.6,88,30.18,6.2,South,8.1,-,N/A,,Overcast,190,2013-09-03 23:50:00
1:20 AM,57.2,53.6,88,30.15,6.2,SSW,6.9,-,N/A,,Overcast,200,2013-09-04 00:20:00
1:50 AM,57.2,53.6,88,30.15,6.2,South,6.9,-,N/A,,Overcast,190,2013-09-04 00:50:00
2:20 AM,55.4,53.6,94,30.15,6.2,South,5.8,-,N/A,,Overcast,180,2013-09-04 01:20:00
2:50 AM,57.2,53.6,88,30.15,6.2,South,5.8,-,N/A,,Overcast,180,2013-09-04 01:50:00
3:20 AM,55.4,51.8,88,30.12,6.2,Calm,Calm,-,N/A,,Overcast,0,2013-09-04 02:20:00
3:50 AM,55.4,51.8,88,30.12,6.2,Variable,3.5,-,N/A,,Mostly Cloudy,0,2013-09-04 02:50:00
4:20 AM,53.6,51.8,94,30.12,6.2,Calm,Calm,-,N/A,,Overcast,0,2013-09-04 03:20:00
4:50 AM,51.8,51.8,100,30.12,6.2,WNW,2.3,-,N/A,,Overcast,290,2013-09-04 03:50:00
5:20 AM,51.8,51.8,100,30.09,6.2,Calm,Calm,-,N/A,,Overcast,0,2013-09-04 04:20:00
5:50 AM,50.0,50.0,100,30.09,6.2,Calm,Calm,-,N/A,Fog,Shallow Fog,0,2013-09-04 04:50:00
6:20 AM,50.0,50.0,100,30.09,5.6,Calm,Calm,-,N/A,Fog,Fog,0,2013-09-04 05:20:00
6:50 AM,50.0,50.0,100,30.09,6.2,Variable,2.3,-,N/A,Fog,Scattered Clouds,0,2013-09-04 05:50:00
7:20 AM,51.8,51.8,100,30.09,6.2,North,3.5,-,N/A,,Scattered Clouds,360,2013-09-04 06:20:00
7:50 AM,53.6,53.6,100,30.09,6.2,North,2.3,-,N/A,,Scattered Clouds,10,2013-09-04 06:50:00
8:20 AM,55.4,53.6,94,30.09,6.2,NNE,3.5,-,N/A,,Scattered Clouds,20,2013-09-04 07:20:00
8:50 AM,57.2,53.6,88,30.06,6.2,Calm,Calm,-,N/A,,Mostly Cloudy,0,2013-09-04 07:50:00
9:20 AM,60.8,55.4,82,30.06,6.2,Variable,5.8,17.3,N/A,,Scattered Clouds,0,2013-09-04 08:20:00
9:50 AM,60.8,53.6,77,30.06,6.2,SSW,13.8,-,N/A,,Mostly Cloudy,200,2013-09-04 08:50:00
10:20 AM,60.8,53.6,77,30.06,6.2,SSW,13.8,-,N/A,,Mostly Cloudy,200,2013-09-04 09:20:00
10:50 AM,62.6,53.6,72,30.06,6.2,SSW,16.1,-,N/A,,Scattered Clouds,210,2013-09-04 09:50:00
11:20 AM,64.4,51.8,64,30.04,6.2,SSW,18.4,-,N/A,,Scattered Clouds,200,2013-09-04 10:20:00
11:50 AM,62.6,51.8,68,30.04,6.2,SW,17.3,-,N/A,,Partly Cloudy,220,2013-09-04 10:50:00
12:20 PM,62.6,51.8,68,30.04,6.2,SW,16.1,-,N/A,,Scattered Clouds,230,2013-09-04 11:20:00
12:50 PM,66.2,53.6,64,30.04,6.2,SW,18.4,-,N/A,,Partly Cloudy,220,2013-09-04 11:50:00
1:20 PM,66.2,51.8,60,30.04,6.2,SW,15.0,-,N/A,,Partly Cloudy,220,2013-09-04 12:20:00
1:50 PM,66.2,53.6,64,30.01,6.2,SW,15.0,-,N/A,,Partly Cloudy,230,2013-09-04 12:50:00
2:20 PM,68.0,51.8,56,30.01,6.2,SW,18.4,-,N/A,,Partly Cloudy,220,2013-09-04 13:20:00
2:50 PM,66.2,53.6,64,30.01,6.2,SSW,16.1,-,N/A,,Partly Cloudy,210,2013-09-04 13:50:00
3:20 PM,68.0,53.6,60,29.98,6.2,SSW,17.3,-,N/A,,Partly Cloudy,210,2013-09-04 14:20:00
3:50 PM,68.0,53.6,60,29.98,6.2,SSW,16.1,-,N/A,,Partly Cloudy,210,2013-09-04 14:50:00
4:20 PM,68.0,51.8,56,29.98,6.2,SSW,15.0,-,N/A,,Partly Cloudy,210,2013-09-04 15:20:00
4:50 PM,68.0,51.8,56,29.95,6.2,SW,15.0,-,N/A,,Partly Cloudy,230,2013-09-04 15:50:00
5:20 PM,66.2,51.8,60,29.95,-9999.0,SW,15.0,-,N/A,,Clear,220,2013-09-04 16:20:00
5:50 PM,66.2,51.8,60,29.95,-9999.0,SW,15.0,-,N/A,,Clear,220,2013-09-04 16:50:00
6:20 PM,66.2,53.6,64,29.95,-9999.0,SW,11.5,-,N/A,,Clear,230,2013-09-04 17:20:00
6:50 PM,64.4,51.8,64,29.95,-9999.0,SW,13.8,-,N/A,,Clear,220,2013-09-04 17:50:00
7:20 PM,62.6,51.8,68,29.95,-9999.0,SSW,11.5,-,N/A,,Clear,210,2013-09-04 18:20:00
7:50 PM,62.6,50.0,63,29.95,-9999.0,SSW,10.4,-,N/A,,Clear,210,2013-09-04 18:50:00
8:20 PM,59.0,50.0,72,29.95,-9999.0,SSW,5.8,-,N/A,,Clear,210,2013-09-04 19:20:00
8:50 PM,60.8,50.0,68,29.92,-9999.0,SSW,9.2,-,N/A,,Clear,210,2013-09-04 19:50:00
9:20 PM,57.2,48.2,72,29.92,-9999.0,WSW,4.6,-,N/A,,Clear,240,2013-09-04 20:20:00
9:50 PM,59.0,50.0,72,29.92,-9999.0,SSW,10.4,-,N/A,,Clear,200,2013-09-04 20:50:00
10:20 PM,59.0,48.2,67,29.92,-9999.0,South,6.9,-,N/A,,Clear,190,2013-09-04 21:20:00
10:50 PM,57.2,48.2,72,29.92,-9999.0,Variable,3.5,-,N/A,,Clear,0,2013-09-04 21:50:00
11:20 PM,57.2,48.2,72,29.92,-9999.0,SSE,3.5,-,N/A,,Clear,150,2013-09-04 22:20:00
11:50 PM,55.4,50.0,82,29.92,-9999.0,Variable,3.5,-,N/A,,Clear,0,2013-09-04 22:50:00